x

Fripp Nearshore (frp 2) (41033) Weather Station

5:00pm - Mon 25th May 2015 All times are EDT. -4 hours from GMT.

  • Wind
    13mph, 16mph gusts
  • Air Temp 77°f
  • Sea Pressure 1023.8mb
  • Fripp Nearshore (frp 2)
  • Fripp Nearshore (frp 2)

More Historic Weather Station data

Upgrade to MSW Pro to gain access to the past 30 days of data for over 8000 Wavebouys and Weather Stations around the globe.

Join Pro

Comparision Forecast

View Surf forecast
   
Mon 05/25 5:00pm 13 16 mph 1023.8mb 77f
4:00pm 13
mph
1024mb 77f
3:00pm 11 13 mph 1024.3mb 78f
1:00pm 13 16 mph 1025.1mb 78f
12:00pm 13 18 mph 1025.2mb 77f
11:00am 13 16 mph 1025.5mb 77f
10:00am 11 13 mph 1025.5mb 77f
9:00am 13 18 mph 1025.1mb 77f
8:00am 13 16 mph 1024.6mb 76f
7:00am 13 18 mph 1024.1mb 76f
6:00am 13 16 mph 1023.8mb 75f
5:00am 11 13 mph 1023.7mb 76f
4:00am 13 16 mph 1023.8mb 75f
3:00am 18 22 mph 1023.7mb 75f
2:00am 18 22 mph 1023.9mb 75f
1:00am 20 25 mph 1024.2mb 75f
12:00am 18 22 mph 1024.7mb 75f
Sun 05/24 11:00pm 18 20 mph 1024.7mb 76f
8:00pm 20 22 mph 1024.8mb 76f
7:00pm 18 22 mph 1024.7mb 76f
6:00pm 20 25 mph 1024.6mb 76f
5:00pm 20 22 mph 1024.6mb 77f
4:00pm 16 20 mph 1025.2mb 77f
3:00pm 20 22 mph 1025.8mb 76f
2:00pm 18 22 mph 1026.3mb 76f
1:00pm 18 22 mph 1026.5mb 76f
12:00pm 16 18 mph 1026.9mb 76f
11:00am 16 20 mph 1027mb 76f
10:00am 16 18 mph 1026.8mb 76f
9:00am 16 18 mph 1026.6mb 76f
8:00am 13 16 mph 1026.5mb 76f
7:00am 16 18 mph 1026.3mb 75f
6:00am 16 20 mph 1025.7mb 74f
5:00am 13 18 mph 1025.6mb 74f
3:00am 18 20 mph 1025mb 75f
2:00am 18 20 mph 1025.3mb 75f
1:00am 18 22 mph 1025.9mb 75f
12:00am 18 22 mph 1026mb 75f
Sat 05/23 11:00pm 18 20 mph 1026.2mb 75f
10:00pm 20 25 mph 1025.9mb 75f
9:00pm 18 22 mph 1025.6mb 75f
8:00pm 20 22 mph 1025.8mb 75f
7:00pm 20 25 mph 1026.1mb 75f
6:00pm 18 20 mph 1026.2mb 75f
5:00pm 20 22 mph 1026.3mb 75f
4:00pm 20 22 mph 1026.6mb 74f
3:00pm 18 20 mph 1026.9mb 74f
2:00pm 20 22 mph 1027.1mb 74f
1:00pm 18 20 mph 1027.4mb 74f
12:00pm 16 20 mph 1027.4mb 74f
10:00am 20 25 mph 1026.8mb 73f
9:00am 16 20 mph 1026.8mb 73f
8:00am 20 22 mph 1025.9mb 73f
7:00am 20 25 mph 1025.2mb 72f
6:00am 16 18 mph 1024.3mb 73f
5:00am 18 20 mph 1023.7mb 73f
4:00am 13 18 mph 1023.2mb 73f
3:00am 13 16 mph 1023.1mb 73f
2:00am 13 16 mph 1023.2mb 72f
1:00am 11 13 mph 1023.5mb 72f
12:00am 11 13 mph 1023.6mb 72f
Fri 05/22 11:00pm 11 13 mph 1023.5mb 73f
10:00pm 11 13 mph 1022.8mb 72f
9:00pm 11
mph
1022.4mb 72f
8:00pm 11 13 mph 1021.9mb 72f
7:00pm 13 16 mph 1021.4mb 73f
6:00pm 16 18 mph 1021.3mb 73f
5:00pm 16 18 mph 1021.2mb 73f
4:00pm 16 18 mph 1021.2mb 73f
3:00pm 16 18 mph 1021.2mb 72f
2:00pm 16 20 mph 1021.1mb 72f
1:00pm 18 20 mph 1020.9mb 72f
12:00pm 18 22 mph 1020.9mb 71f
11:00am 20 22 mph 1020.3mb 71f
10:00am 22 25 mph 1019.5mb 71f
9:00am 22 27 mph 1018.8mb 71f
8:00am 22 27 mph 1017.8mb 72f
7:00am 13 18 mph 1017.5mb 70f
6:00am 13 16 mph 1016.1mb 71f
5:00am 16 20 mph 1015.1mb 73f
4:00am 16 18 mph 1014.7mb 75f
3:00am 20 22 mph 1013.9mb 77f
2:00am 13 16 mph 1013.6mb 78f
1:00am 13 16 mph 1013.3mb 80f
12:00am 9 11 mph 1013mb 80f
Thu 05/21 11:00pm 7 9 mph 1012.6mb 79f